Time,TemperatureF,DewpointF,PressureIn,WindDirection,WindDirectionDegrees,WindSpeedMPH,WindSpeedGustMPH,Humidity,HourlyPrecipIn,Conditions,Clouds,dailyrainin,SoftwareType,DateUTC
2013-01-14 00:00:00,61.1,59.4,30.09,SE,146,0.0,1.0,94,0.00,,,0.00,Wunderground v.1.15,2013-01-14 05:00:00,
2013-01-14 00:05:00,61.4,59.7,30.09,SE,140,0.0,1.0,94,0.00,,,0.00,Wunderground v.1.15,2013-01-14 05:05:00,
2013-01-14 00:15:00,61.7,59.7,30.08,SE,140,0.0,0.0,93,0.00,,,0.00,Wunderground v.1.15,2013-01-14 05:15:00,
2013-01-14 00:20:00,61.9,59.9,30.09,SW,218,0.0,0.0,93,0.00,,,0.00,Wunderground v.1.15,2013-01-14 05:20:00,
2013-01-14 00:25:00,62.1,59.7,30.09,SW,218,0.0,0.0,92,0.00,,,0.00,Wunderground v.1.15,2013-01-14 05:25:00,
2013-01-14 00:30:00,62.2,59.8,30.09,SE,126,0.0,0.0,92,0.00,,,0.00,Wunderground v.1.15,2013-01-14 05:30:00,
2013-01-14 00:35:00,62.4,60.0,30.10,SSW,209,0.0,0.0,92,0.00,,,0.00,Wunderground v.1.15,2013-01-14 05:35:00,
2013-01-14 00:40:00,62.6,60.2,30.10,SSW,207,0.0,0.0,92,0.00,,,0.00,Wunderground v.1.15,2013-01-14 05:40:00,
2013-01-14 00:45:00,62.7,60.0,30.10,South,184,0.0,1.0,91,0.00,,,0.00,Wunderground v.1.15,2013-01-14 05:45:00,
2013-01-14 00:55:00,63.1,60.4,30.09,SE,144,1.0,1.0,91,0.00,,,0.00,Wunderground v.1.15,2013-01-14 05:55:00,
2013-01-14 01:00:00,63.1,60.1,30.09,South,184,1.0,1.0,90,0.00,,,0.00,Wunderground v.1.15,2013-01-14 06:00:00,
2013-01-14 01:05:00,63.1,60.4,30.09,SE,138,0.0,1.0,91,0.00,,,0.00,Wunderground v.1.15,2013-01-14 06:05:00,
2013-01-14 01:15:00,63.2,60.2,30.10,SSE,163,1.0,1.0,90,0.00,,,0.00,Wunderground v.1.15,2013-01-14 06:15:00,
2013-01-14 01:20:00,63.1,60.1,30.10,SSE,163,0.0,0.0,90,0.00,,,0.00,Wunderground v.1.15,2013-01-14 06:20:00,
2013-01-14 01:25:00,63.0,60.0,30.10,SSE,163,0.0,0.0,90,0.00,,,0.00,Wunderground v.1.15,2013-01-14 06:25:00,
2013-01-14 01:35:00,62.6,59.6,30.09,SSE,163,0.0,0.0,90,0.00,,,0.00,Wunderground v.1.15,2013-01-14 06:35:00,
2013-01-14 01:40:00,62.3,59.3,30.10,SSE,163,0.0,0.0,90,0.00,,,0.00,Wunderground v.1.15,2013-01-14 06:40:00,
2013-01-14 01:45:00,62.1,59.4,30.10,SSE,163,0.0,0.0,91,0.00,,,0.00,Wunderground v.1.15,2013-01-14 06:45:00,
2013-01-14 01:50:00,62.0,59.3,30.10,SSE,163,0.0,0.0,91,0.00,,,0.00,Wunderground v.1.15,2013-01-14 06:50:00,
2013-01-14 01:55:00,61.6,58.9,30.11,SSE,163,0.0,0.0,91,0.00,,,0.00,Wunderground v.1.15,2013-01-14 06:55:00,
2013-01-14 02:05:00,60.8,58.5,30.11,SSE,161,0.0,0.0,92,0.00,,,0.00,Wunderground v.1.15,2013-01-14 07:05:00,
2013-01-14 02:15:00,60.3,58.3,30.11,SSE,161,0.0,0.0,93,0.00,,,0.00,Wunderground v.1.15,2013-01-14 07:15:00,
2013-01-14 02:20:00,60.2,58.2,30.11,SSE,161,0.0,0.0,93,0.00,,,0.00,Wunderground v.1.15,2013-01-14 07:20:00,
2013-01-14 02:25:00,60.0,58.0,30.11,SSE,161,0.0,0.0,93,0.00,,,0.00,Wunderground v.1.15,2013-01-14 07:25:00,
2013-01-14 02:35:00,60.0,58.3,30.11,SSE,161,0.0,0.0,94,0.00,,,0.00,Wunderground v.1.15,2013-01-14 07:35:00,
2013-01-14 02:40:00,60.1,58.4,30.11,SSE,161,0.0,0.0,94,0.00,,,0.00,Wunderground v.1.15,2013-01-14 07:40:00,
2013-01-14 02:45:00,60.0,58.3,30.12,SSE,161,0.0,0.0,94,0.00,,,0.00,Wunderground v.1.15,2013-01-14 07:45:00,
2013-01-14 02:50:00,59.8,58.1,30.12,SSE,161,0.0,0.0,94,0.00,,,0.00,Wunderground v.1.15,2013-01-14 07:50:00,
2013-01-14 02:55:00,59.8,58.4,30.12,SSE,161,0.0,0.0,95,0.00,,,0.00,Wunderground v.1.15,2013-01-14 07:55:00,
2013-01-14 03:00:00,59.9,58.5,30.11,SSE,161,0.0,0.0,95,0.00,,,0.00,Wunderground v.1.15,2013-01-14 08:00:00,
2013-01-14 03:05:00,59.8,58.1,30.11,SSE,161,0.0,0.0,94,0.00,,,0.00,Wunderground v.1.15,2013-01-14 08:05:00,
2013-01-14 03:15:00,59.0,57.3,30.11,SSE,161,0.0,0.0,94,0.00,,,0.00,Wunderground v.1.15,2013-01-14 08:15:00,
2013-01-14 03:20:00,59.0,57.3,30.11,SSE,161,0.0,0.0,94,0.00,,,0.00,Wunderground v.1.15,2013-01-14 08:20:00,
2013-01-14 03:25:00,59.0,57.3,30.11,SSE,161,0.0,0.0,94,0.00,,,0.00,Wunderground v.1.15,2013-01-14 08:25:00,
2013-01-14 03:30:00,58.7,57.0,30.12,SSE,161,0.0,0.0,94,0.00,,,0.00,Wunderground v.1.15,2013-01-14 08:30:00,
2013-01-14 03:35:00,58.4,56.7,30.11,SSE,161,0.0,0.0,94,0.00,,,0.00,Wunderground v.1.15,2013-01-14 08:35:00,
2013-01-14 03:45:00,57.8,56.1,30.11,SSE,161,0.0,0.0,94,0.00,,,0.00,Wunderground v.1.15,2013-01-14 08:45:00,
2013-01-14 03:50:00,57.5,56.1,30.11,SSE,161,0.0,0.0,95,0.00,,,0.00,Wunderground v.1.15,2013-01-14 08:50:00,
2013-01-14 03:55:00,57.4,56.0,30.11,SSE,161,0.0,0.0,95,0.00,,,0.00,Wunderground v.1.15,2013-01-14 08:55:00,
2013-01-14 04:00:00,57.2,55.8,30.11,SSE,161,0.0,0.0,95,0.00,,,0.00,Wunderground v.1.15,2013-01-14 09:00:00,
2013-01-14 04:05:00,56.9,55.5,30.11,SSE,161,0.0,0.0,95,0.00,,,0.00,Wunderground v.1.15,2013-01-14 09:05:00,
2013-01-14 04:15:00,56.5,55.4,30.11,SSE,161,0.0,0.0,96,0.00,,,0.00,Wunderground v.1.15,2013-01-14 09:15:00,
2013-01-14 04:20:00,56.3,54.9,30.11,SSE,161,0.0,0.0,95,0.00,,,0.00,Wunderground v.1.15,2013-01-14 09:20:00,
2013-01-14 04:25:00,56.2,55.1,30.11,SSE,161,0.0,0.0,96,0.00,,,0.00,Wunderground v.1.15,2013-01-14 09:25:00,
2013-01-14 04:30:00,56.1,55.0,30.11,SSE,161,0.0,0.0,96,0.00,,,0.00,Wunderground v.1.15,2013-01-14 09:30:00,
2013-01-14 04:35:00,56.1,55.0,30.10,SSE,161,0.0,0.0,96,0.00,,,0.00,Wunderground v.1.15,2013-01-14 09:35:00,
2013-01-14 04:40:00,56.1,55.0,30.10,SSE,161,0.0,0.0,96,0.00,,,0.00,Wunderground v.1.15,2013-01-14 09:40:00,
2013-01-14 04:50:00,56.6,55.8,30.10,SSE,161,0.0,0.0,97,0.00,,,0.00,Wunderground v.1.15,2013-01-14 09:50:00,
2013-01-14 04:55:00,56.4,55.6,30.10,SSE,161,0.0,0.0,97,0.00,,,0.00,Wunderground v.1.15,2013-01-14 09:55:00,
2013-01-14 05:00:00,56.2,55.4,30.10,SSE,161,0.0,0.0,97,0.00,,,0.00,Wunderground v.1.15,2013-01-14 10:00:00,
2013-01-14 05:05:00,56.1,55.3,30.10,SSE,161,0.0,0.0,97,0.00,,,0.00,Wunderground v.1.15,2013-01-14 10:05:00,
2013-01-14 05:15:00,56.0,55.2,30.10,SSE,161,0.0,0.0,97,0.00,,,0.00,Wunderground v.1.15,2013-01-14 10:15:00,
2013-01-14 05:20:00,56.1,55.3,30.10,SSE,161,0.0,0.0,97,0.00,,,0.00,Wunderground v.1.15,2013-01-14 10:20:00,
2013-01-14 05:25:00,56.3,55.7,30.10,SSE,161,0.0,0.0,98,0.00,,,0.00,Wunderground v.1.15,2013-01-14 10:25:00,
2013-01-14 05:30:00,56.8,56.2,30.10,SSE,161,0.0,0.0,98,0.00,,,0.00,Wunderground v.1.15,2013-01-14 10:30:00,
2013-01-14 05:35:00,57.2,56.6,30.10,SSE,161,0.0,0.0,98,0.00,,,0.00,Wunderground v.1.15,2013-01-14 10:35:00,
2013-01-14 05:40:00,57.5,56.9,30.10,SSE,161,0.0,0.0,98,0.00,,,0.00,Wunderground v.1.15,2013-01-14 10:40:00,
2013-01-14 05:45:00,57.7,57.1,30.11,SSE,161,0.0,0.0,98,0.00,,,0.00,Wunderground v.1.15,2013-01-14 10:45:00,
2013-01-14 05:50:00,57.8,57.2,30.11,SSE,161,0.0,0.0,98,0.00,,,0.00,Wunderground v.1.15,2013-01-14 10:50:00,
2013-01-14 06:00:00,57.9,57.3,30.11,SSE,161,0.0,0.0,98,0.00,,,0.00,Wunderground v.1.15,2013-01-14 11:00:00,
2013-01-14 06:05:00,57.9,57.3,30.11,SSE,161,0.0,0.0,98,0.00,,,0.00,Wunderground v.1.15,2013-01-14 11:05:00,
2013-01-14 06:15:00,58.0,57.4,30.11,SSE,161,0.0,0.0,98,0.00,,,0.00,Wunderground v.1.15,2013-01-14 11:15:00,
2013-01-14 06:20:00,58.0,57.4,30.11,SSE,161,0.0,0.0,98,0.00,,,0.00,Wunderground v.1.15,2013-01-14 11:20:00,
2013-01-14 06:25:00,58.0,57.4,30.11,SSE,161,0.0,0.0,98,0.00,,,0.00,Wunderground v.1.15,2013-01-14 11:25:00,
2013-01-14 06:35:00,58.0,57.4,30.11,SSE,161,0.0,0.0,98,0.00,,,0.00,Wunderground v.1.15,2013-01-14 11:35:00,
2013-01-14 06:40:00,58.0,57.4,30.11,SSE,161,0.0,0.0,98,0.00,,,0.00,Wunderground v.1.15,2013-01-14 11:40:00,
2013-01-14 06:45:00,58.0,57.4,30.11,SSE,161,0.0,0.0,98,0.00,,,0.00,Wunderground v.1.15,2013-01-14 11:45:00,
2013-01-14 06:50:00,57.9,57.3,30.12,SSE,161,0.0,0.0,98,0.00,,,0.00,Wunderground v.1.15,2013-01-14 11:50:00,
2013-01-14 06:55:00,57.9,57.3,30.12,SSE,161,0.0,0.0,98,0.00,,,0.00,Wunderground v.1.15,2013-01-14 11:55:00,
2013-01-14 07:05:00,58.0,57.4,30.12,SSE,161,0.0,0.0,98,0.00,,,0.00,Wunderground v.1.15,2013-01-14 12:05:00,
2013-01-14 07:15:00,58.0,57.4,30.12,SSE,161,0.0,0.0,98,0.00,,,0.00,Wunderground v.1.15,2013-01-14 12:15:00,
2013-01-14 07:20:00,57.9,57.3,30.13,SSE,161,0.0,0.0,98,0.00,,,0.00,Wunderground v.1.15,2013-01-14 12:20:00,
2013-01-14 07:25:00,58.0,57.4,30.13,SSE,161,0.0,0.0,98,0.00,,,0.00,Wunderground v.1.15,2013-01-14 12:25:00,
2013-01-14 07:30:00,58.0,57.4,30.13,SSE,161,0.0,0.0,98,0.00,,,0.00,Wunderground v.1.15,2013-01-14 12:30:00,
2013-01-14 07:40:00,58.1,57.5,30.14,SSE,161,0.0,0.0,98,0.00,,,0.00,Wunderground v.1.15,2013-01-14 12:40:00,
2013-01-14 07:45:00,58.2,57.4,30.14,SSE,161,0.0,0.0,97,0.00,,,0.00,Wunderground v.1.15,2013-01-14 12:45:00,
2013-01-14 07:50:00,58.2,57.4,30.14,SSE,161,0.0,0.0,97,0.00,,,0.00,Wunderground v.1.15,2013-01-14 12:50:00,
2013-01-14 08:00:00,58.3,57.5,30.14,SSE,161,0.0,0.0,97,0.00,,,0.00,Wunderground v.1.15,2013-01-14 13:00:00,
2013-01-14 08:05:00,58.3,57.5,30.14,SSE,161,0.0,0.0,97,0.00,,,0.00,Wunderground v.1.15,2013-01-14 13:05:00,
2013-01-14 08:15:00,58.4,57.6,30.14,SSE,161,0.0,0.0,97,0.00,,,0.00,Wunderground v.1.15,2013-01-14 13:15:00,
2013-01-14 08:20:00,58.5,57.7,30.14,SSE,161,0.0,0.0,97,0.00,,,0.00,Wunderground v.1.15,2013-01-14 13:20:00,
2013-01-14 08:25:00,58.5,57.7,30.14,SSE,161,0.0,0.0,97,0.00,,,0.00,Wunderground v.1.15,2013-01-14 13:25:00,
2013-01-14 08:30:00,58.6,57.8,30.14,SSE,161,0.0,0.0,97,0.00,,,0.00,Wunderground v.1.15,2013-01-14 13:30:00,
2013-01-14 08:35:00,58.8,58.0,30.14,SSE,161,0.0,0.0,97,0.00,,,0.00,Wunderground v.1.15,2013-01-14 13:35:00,
2013-01-14 08:45:00,59.0,58.2,30.14,SSE,161,0.0,0.0,97,0.00,,,0.00,Wunderground v.1.15,2013-01-14 13:45:00,
2013-01-14 08:50:00,59.0,58.2,30.15,SSE,161,0.0,0.0,97,0.00,,,0.00,Wunderground v.1.15,2013-01-14 13:50:00,
2013-01-14 08:55:00,59.0,58.2,30.15,SSE,161,0.0,0.0,97,0.00,,,0.00,Wunderground v.1.15,2013-01-14 13:55:00,
2013-01-14 09:00:00,59.2,58.1,30.15,SSE,161,0.0,0.0,96,0.00,,,0.00,Wunderground v.1.15,2013-01-14 14:00:00,
2013-01-14 09:05:00,59.4,58.3,30.15,SSE,162,0.0,0.0,96,0.00,,,0.00,Wunderground v.1.15,2013-01-14 14:05:00,
2013-01-14 09:15:00,59.6,58.5,30.15,SSE,162,0.0,0.0,96,0.00,,,0.00,Wunderground v.1.15,2013-01-14 14:15:00,
2013-01-14 09:20:00,59.8,58.4,30.15,SSE,162,0.0,0.0,95,0.00,,,0.00,Wunderground v.1.15,2013-01-14 14:20:00,
2013-01-14 09:25:00,60.0,58.6,30.16,SSE,162,0.0,0.0,95,0.00,,,0.00,Wunderground v.1.15,2013-01-14 14:25:00,
2013-01-14 09:30:00,60.2,58.8,30.16,SSE,162,0.0,0.0,95,0.00,,,0.00,Wunderground v.1.15,2013-01-14 14:30:00,
2013-01-14 09:35:00,60.4,59.0,30.16,SSE,162,0.0,0.0,95,0.00,,,0.00,Wunderground v.1.15,2013-01-14 14:35:00,
2013-01-14 09:45:00,60.8,59.1,30.16,West,261,0.0,0.0,94,0.00,,,0.00,Wunderground v.1.15,2013-01-14 14:45:00,
2013-01-14 09:50:00,61.0,59.0,30.16,SSW,213,0.0,0.0,93,0.00,,,0.00,Wunderground v.1.15,2013-01-14 14:50:00,
2013-01-14 09:55:00,61.2,59.2,30.17,SSW,213,0.0,0.0,93,0.00,,,0.00,Wunderground v.1.15,2013-01-14 14:55:00,
2013-01-14 10:00:00,61.3,59.3,30.17,SE,126,0.0,0.0,93,0.00,,,0.00,Wunderground v.1.15,2013-01-14 15:00:00,
2013-01-14 10:05:00,61.4,59.1,30.17,SE,126,0.0,0.0,92,0.00,,,0.00,Wunderground v.1.15,2013-01-14 15:05:00,
2013-01-14 10:15:00,61.9,59.5,30.16,SSE,163,0.0,0.0,92,0.00,,,0.00,Wunderground v.1.15,2013-01-14 15:15:00,
2013-01-14 10:25:00,62.3,59.6,30.16,SSE,163,0.0,0.0,91,0.00,,,0.00,Wunderground v.1.15,2013-01-14 15:25:00,
2013-01-14 10:30:00,62.6,59.9,30.16,South,169,0.0,0.0,91,0.00,,,0.00,Wunderground v.1.15,2013-01-14 15:30:00,
2013-01-14 10:35:00,62.9,60.2,30.16,South,169,0.0,0.0,91,0.00,,,0.00,Wunderground v.1.15,2013-01-14 15:35:00,
2013-01-14 10:40:00,63.1,60.1,30.15,WSW,253,0.0,2.0,90,0.00,,,0.00,Wunderground v.1.15,2013-01-14 15:40:00,
2013-01-14 10:45:00,63.4,60.4,30.15,WSW,251,0.0,2.0,90,0.00,,,0.00,Wunderground v.1.15,2013-01-14 15:45:00,
2013-01-14 10:50:00,63.6,60.3,30.15,WSW,251,0.0,0.0,89,0.00,,,0.00,Wunderground v.1.15,2013-01-14 15:50:00,
2013-01-14 11:00:00,64.2,60.9,30.14,WSW,251,0.0,0.0,89,0.00,,,0.00,Wunderground v.1.15,2013-01-14 16:00:00,
2013-01-14 11:05:00,64.5,60.9,30.14,SSW,200,0.0,0.0,88,0.00,,,0.00,Wunderground v.1.15,2013-01-14 16:05:00,
2013-01-14 11:15:00,65.3,61.3,30.14,SSE,155,1.0,2.0,87,0.00,,,0.00,Wunderground v.1.15,2013-01-14 16:15:00,
2013-01-14 11:25:00,65.9,61.3,30.13,SSE,163,1.0,2.0,85,0.00,,,0.00,Wunderground v.1.15,2013-01-14 16:25:00,
2013-01-14 11:30:00,66.0,61.4,30.13,SSE,163,1.0,1.0,85,0.00,,,0.00,Wunderground v.1.15,2013-01-14 16:30:00,
2013-01-14 11:35:00,66.2,61.6,30.12,SSE,163,0.0,1.0,85,0.00,,,0.00,Wunderground v.1.15,2013-01-14 16:35:00,
2013-01-14 11:45:00,66.7,61.7,30.13,SSE,162,1.0,1.0,84,0.00,,,0.00,Wunderground v.1.15,2013-01-14 16:45:00,
2013-01-14 11:50:00,66.7,61.7,30.12,SSW,208,1.0,1.0,84,0.00,,,0.00,Wunderground v.1.15,2013-01-14 16:50:00,
2013-01-14 11:55:00,66.8,61.8,30.12,SSW,208,0.0,1.0,84,0.00,,,0.00,Wunderground v.1.15,2013-01-14 16:55:00,
2013-01-14 12:05:00,67.0,61.7,30.12,SSW,192,0.0,0.0,83,0.00,,,0.00,Wunderground v.1.15,2013-01-14 17:05:00,
2013-01-14 12:15:00,67.0,62.0,30.12,South,190,0.0,0.0,84,0.00,,,0.00,Wunderground v.1.15,2013-01-14 17:15:00,
2013-01-14 12:20:00,67.0,62.0,30.11,South,175,0.0,0.0,84,0.00,,,0.00,Wunderground v.1.15,2013-01-14 17:20:00,
2013-01-14 12:25:00,67.0,62.3,30.11,South,175,0.0,0.0,85,0.00,,,0.00,Wunderground v.1.15,2013-01-14 17:25:00,
2013-01-14 12:30:00,66.9,61.9,30.11,South,175,0.0,0.0,84,0.00,,,0.00,Wunderground v.1.15,2013-01-14 17:30:00,
2013-01-14 12:40:00,66.9,62.2,30.10,South,175,0.0,0.0,85,0.00,,,0.00,Wunderground v.1.15,2013-01-14 17:40:00,
2013-01-14 12:45:00,67.0,62.3,30.11,South,175,0.0,0.0,85,0.00,,,0.00,Wunderground v.1.15,2013-01-14 17:45:00,
2013-01-14 12:50:00,67.0,62.3,30.10,South,175,0.0,0.0,85,0.00,,,0.00,Wunderground v.1.15,2013-01-14 17:50:00,
2013-01-14 12:55:00,67.1,62.4,30.10,South,175,0.0,0.0,85,0.00,,,0.00,Wunderground v.1.15,2013-01-14 17:55:00,
2013-01-14 13:00:00,67.2,62.2,30.10,South,175,0.0,0.0,84,0.00,,,0.00,Wunderground v.1.15,2013-01-14 18:00:00,
2013-01-14 13:05:00,67.2,62.2,30.10,South,175,0.0,0.0,84,0.00,,,0.00,Wunderground v.1.15,2013-01-14 18:05:00,
2013-01-14 13:15:00,67.1,62.1,30.10,South,175,0.0,0.0,84,0.00,,,0.00,Wunderground v.1.15,2013-01-14 18:15:00,
2013-01-14 13:20:00,67.1,62.4,30.10,South,175,0.0,0.0,85,0.00,,,0.00,Wunderground v.1.15,2013-01-14 18:20:00,
2013-01-14 13:25:00,67.0,62.3,30.10,South,175,0.0,0.0,85,0.00,,,0.00,Wunderground v.1.15,2013-01-14 18:25:00,
2013-01-14 13:30:00,67.0,62.3,30.10,South,175,0.0,0.0,85,0.00,,,0.00,Wunderground v.1.15,2013-01-14 18:30:00,
2013-01-14 13:35:00,67.0,62.3,30.10,South,175,0.0,0.0,85,0.00,,,0.00,Wunderground v.1.15,2013-01-14 18:35:00,
2013-01-14 13:45:00,67.0,62.7,30.10,South,175,0.0,0.0,86,0.00,,,0.00,Wunderground v.1.15,2013-01-14 18:45:00,
2013-01-14 13:50:00,67.1,62.8,30.10,South,175,0.0,0.0,86,0.00,,,0.00,Wunderground v.1.15,2013-01-14 18:50:00,
2013-01-14 13:55:00,67.2,62.9,30.10,South,175,0.0,0.0,86,0.00,,,0.00,Wunderground v.1.15,2013-01-14 18:55:00,
2013-01-14 14:00:00,67.2,62.5,30.10,South,175,0.0,0.0,85,0.00,,,0.00,Wunderground v.1.15,2013-01-14 19:00:00,
2013-01-14 14:05:00,67.3,62.6,30.10,South,175,0.0,0.0,85,0.00,,,0.00,Wunderground v.1.15,2013-01-14 19:05:00,
2013-01-14 14:20:00,67.4,62.7,30.10,South,175,0.0,0.0,85,0.00,,,0.00,Wunderground v.1.15,2013-01-14 19:20:00,
2013-01-14 14:30:00,67.5,62.8,30.10,South,175,0.0,0.0,85,0.00,,,0.00,Wunderground v.1.15,2013-01-14 19:30:00,
2013-01-14 14:35:00,67.6,63.3,30.10,South,175,0.0,0.0,86,0.00,,,0.00,Wunderground v.1.15,2013-01-14 19:35:00,
2013-01-14 14:40:00,67.6,63.3,30.10,South,175,0.0,0.0,86,0.00,,,0.00,Wunderground v.1.15,2013-01-14 19:40:00,
2013-01-14 14:45:00,67.7,63.4,30.10,South,175,0.0,0.0,86,0.00,,,0.00,Wunderground v.1.15,2013-01-14 19:45:00,
2013-01-14 14:55:00,67.9,63.6,30.10,South,175,0.0,0.0,86,0.00,,,0.00,Wunderground v.1.15,2013-01-14 19:55:00,
2013-01-14 15:00:00,67.8,63.5,30.11,South,175,0.0,0.0,86,0.00,,,0.00,Wunderground v.1.15,2013-01-14 20:00:00,
2013-01-14 15:05:00,67.8,63.5,30.11,South,175,0.0,0.0,86,0.00,,,0.00,Wunderground v.1.15,2013-01-14 20:05:00,
2013-01-14 15:15:00,67.6,63.3,30.11,South,175,0.0,0.0,86,0.00,,,0.00,Wunderground v.1.15,2013-01-14 20:15:00,
2013-01-14 15:25:00,67.5,63.5,30.11,South,175,0.0,0.0,87,0.00,,,0.00,Wunderground v.1.15,2013-01-14 20:25:00,
2013-01-14 15:30:00,67.4,63.4,30.11,South,175,0.0,0.0,87,0.00,,,0.00,Wunderground v.1.15,2013-01-14 20:30:00,
2013-01-14 15:35:00,67.2,63.5,30.11,South,175,0.0,0.0,88,0.00,,,0.00,Wunderground v.1.15,2013-01-14 20:35:00,
2013-01-14 15:40:00,67.1,63.4,30.11,South,175,0.0,0.0,88,0.00,,,0.00,Wunderground v.1.15,2013-01-14 20:40:00,
2013-01-14 15:50:00,66.9,63.2,30.11,South,175,0.0,0.0,88,0.00,,,0.00,Wunderground v.1.15,2013-01-14 20:50:00,
2013-01-14 15:55:00,66.8,63.5,30.11,South,175,0.0,0.0,89,0.00,,,0.00,Wunderground v.1.15,2013-01-14 20:55:00,
2013-01-14 16:00:00,66.7,63.4,30.11,South,175,0.0,0.0,89,0.00,,,0.00,Wunderground v.1.15,2013-01-14 21:00:00,
2013-01-14 16:05:00,66.7,63.4,30.11,South,175,0.0,0.0,89,0.00,,,0.00,Wunderground v.1.15,2013-01-14 21:05:00,
2013-01-14 16:15:00,66.6,63.6,30.12,South,175,0.0,0.0,90,0.00,,,0.00,Wunderground v.1.15,2013-01-14 21:15:00,
2013-01-14 16:20:00,66.5,63.5,30.12,South,175,0.0,0.0,90,0.00,,,0.00,Wunderground v.1.15,2013-01-14 21:20:00,
2013-01-14 16:25:00,66.4,63.4,30.12,South,175,0.0,0.0,90,0.00,,,0.00,Wunderground v.1.15,2013-01-14 21:25:00,
2013-01-14 16:35:00,66.1,63.1,30.12,South,175,0.0,0.0,90,0.00,,,0.00,Wunderground v.1.15,2013-01-14 21:35:00,
2013-01-14 16:40:00,66.0,63.0,30.12,South,175,0.0,0.0,90,0.00,,,0.00,Wunderground v.1.15,2013-01-14 21:40:00,
2013-01-14 16:45:00,65.9,63.2,30.12,South,175,0.0,0.0,91,0.00,,,0.00,Wunderground v.1.15,2013-01-14 21:45:00,
2013-01-14 16:50:00,65.7,63.0,30.12,South,175,0.0,0.0,91,0.00,,,0.00,Wunderground v.1.15,2013-01-14 21:50:00,
2013-01-14 16:55:00,65.6,62.9,30.12,South,175,0.0,0.0,91,0.00,,,0.00,Wunderground v.1.15,2013-01-14 21:55:00,
2013-01-14 17:05:00,65.4,62.7,30.12,South,175,0.0,0.0,91,0.00,,,0.00,Wunderground v.1.15,2013-01-14 22:05:00,
2013-01-14 17:15:00,65.2,62.8,30.13,South,175,0.0,0.0,92,0.00,,,0.00,Wunderground v.1.15,2013-01-14 22:15:00,
2013-01-14 17:20:00,65.1,62.7,30.13,South,175,0.0,0.0,92,0.00,,,0.00,Wunderground v.1.15,2013-01-14 22:20:00,
2013-01-14 17:25:00,65.0,62.6,30.13,South,175,0.0,0.0,92,0.00,,,0.00,Wunderground v.1.15,2013-01-14 22:25:00,
2013-01-14 17:30:00,64.9,62.5,30.13,South,175,0.0,0.0,92,0.00,,,0.00,Wunderground v.1.15,2013-01-14 22:30:00,
2013-01-14 17:40:00,64.7,62.6,30.13,South,175,0.0,0.0,93,0.00,,,0.00,Wunderground v.1.15,2013-01-14 22:40:00,
2013-01-14 17:45:00,64.6,62.5,30.14,South,175,0.0,0.0,93,0.00,,,0.00,Wunderground v.1.15,2013-01-14 22:45:00,
2013-01-14 17:50:00,64.5,62.4,30.14,South,175,0.0,0.0,93,0.00,,,0.00,Wunderground v.1.15,2013-01-14 22:50:00,
2013-01-14 17:55:00,64.4,62.3,30.14,South,175,0.0,0.0,93,0.00,,,0.00,Wunderground v.1.15,2013-01-14 22:55:00,
2013-01-14 18:00:00,64.3,62.2,30.14,South,175,0.0,0.0,93,0.00,,,0.00,Wunderground v.1.15,2013-01-14 23:00:00,
2013-01-14 18:05:00,64.3,62.2,30.14,South,175,0.0,0.0,93,0.00,,,0.00,Wunderground v.1.15,2013-01-14 23:05:00,
2013-01-14 18:15:00,64.1,62.3,30.14,South,175,0.0,0.0,94,0.00,,,0.00,Wunderground v.1.15,2013-01-14 23:15:00,
2013-01-14 18:20:00,64.1,62.3,30.14,South,175,0.0,0.0,94,0.00,,,0.00,Wunderground v.1.15,2013-01-14 23:20:00,
2013-01-14 18:25:00,64.0,62.2,30.14,South,175,0.0,0.0,94,0.00,,,0.00,Wunderground v.1.15,2013-01-14 23:25:00,
2013-01-14 18:30:00,63.9,62.1,30.14,South,175,0.0,0.0,94,0.00,,,0.00,Wunderground v.1.15,2013-01-14 23:30:00,
2013-01-14 18:35:00,63.8,62.0,30.14,South,175,0.0,0.0,94,0.00,,,0.00,Wunderground v.1.15,2013-01-14 23:35:00,
2013-01-14 18:45:00,63.8,62.3,30.14,South,175,0.0,0.0,95,0.00,,,0.00,Wunderground v.1.15,2013-01-14 23:45:00,
2013-01-14 18:50:00,63.7,62.2,30.14,South,175,0.0,0.0,95,0.00,,,0.00,Wunderground v.1.15,2013-01-14 23:50:00,
2013-01-14 18:55:00,63.7,62.2,30.14,South,175,0.0,0.0,95,0.00,,,0.00,Wunderground v.1.15,2013-01-14 23:55:00,
2013-01-14 19:00:00,63.6,62.1,30.14,South,175,0.0,0.0,95,0.00,,,0.00,Wunderground v.1.15,2013-01-15 00:00:00,
2013-01-14 19:05:00,63.5,62.0,30.14,South,175,0.0,0.0,95,0.00,,,0.00,Wunderground v.1.15,2013-01-15 00:05:00,
2013-01-14 19:15:00,63.4,61.9,30.14,South,175,0.0,0.0,95,0.00,,,0.00,Wunderground v.1.15,2013-01-15 00:15:00,
2013-01-14 19:20:00,63.3,61.8,30.14,South,175,0.0,0.0,95,0.00,,,0.00,Wunderground v.1.15,2013-01-15 00:20:00,
2013-01-14 19:25:00,63.3,62.1,30.13,South,175,0.0,0.0,96,0.00,,,0.00,Wunderground v.1.15,2013-01-15 00:25:00,
2013-01-14 19:30:00,63.3,62.1,30.13,South,175,0.0,0.0,96,0.00,,,0.00,Wunderground v.1.15,2013-01-15 00:30:00,
2013-01-14 19:35:00,63.2,62.0,30.13,South,175,0.0,0.0,96,0.00,,,0.00,Wunderground v.1.15,2013-01-15 00:35:00,
2013-01-14 19:40:00,63.2,62.0,30.13,South,175,0.0,0.0,96,0.00,,,0.00,Wunderground v.1.15,2013-01-15 00:40:00,
2013-01-14 19:45:00,63.1,61.9,30.13,South,175,0.0,0.0,96,0.00,,,0.00,Wunderground v.1.15,2013-01-15 00:45:00,
2013-01-14 19:55:00,63.0,61.8,30.13,South,175,0.0,0.0,96,0.00,,,0.00,Wunderground v.1.15,2013-01-15 00:55:00,
2013-01-14 20:00:00,63.0,61.8,30.13,South,175,0.0,0.0,96,0.00,,,0.00,Wunderground v.1.15,2013-01-15 01:00:00,
2013-01-14 20:05:00,63.0,61.8,30.13,South,175,0.0,0.0,96,0.00,,,0.00,Wunderground v.1.15,2013-01-15 01:05:00,
2013-01-14 20:15:00,62.9,61.7,30.13,South,175,0.0,0.0,96,0.00,,,0.00,Wunderground v.1.15,2013-01-15 01:15:00,
2013-01-14 20:25:00,62.9,62.0,30.13,South,175,0.0,0.0,97,0.00,,,0.00,Wunderground v.1.15,2013-01-15 01:25:00,
2013-01-14 20:30:00,62.8,61.9,30.12,South,175,0.0,0.0,97,0.00,,,0.00,Wunderground v.1.15,2013-01-15 01:30:00,
2013-01-14 20:35:00,62.7,61.8,30.12,South,175,0.0,0.0,97,0.00,,,0.00,Wunderground v.1.15,2013-01-15 01:35:00,
2013-01-14 20:40:00,62.6,61.7,30.11,South,175,0.0,0.0,97,0.00,,,0.00,Wunderground v.1.15,2013-01-15 01:40:00,
2013-01-14 20:45:00,62.6,61.7,30.12,South,175,0.0,0.0,97,0.00,,,0.00,Wunderground v.1.15,2013-01-15 01:45:00,
2013-01-14 20:50:00,62.6,61.7,30.12,South,175,0.0,0.0,97,0.00,,,0.00,Wunderground v.1.15,2013-01-15 01:50:00,
2013-01-14 21:00:00,62.5,61.6,30.12,South,175,0.0,0.0,97,0.00,,,0.00,Wunderground v.1.15,2013-01-15 02:00:00,
2013-01-14 21:05:00,62.4,61.5,30.11,South,175,0.0,0.0,97,0.00,,,0.00,Wunderground v.1.15,2013-01-15 02:05:00,
2013-01-14 21:15:00,62.3,61.4,30.12,South,175,0.0,0.0,97,0.00,,,0.00,Wunderground v.1.15,2013-01-15 02:15:00,
2013-01-14 21:20:00,62.2,61.3,30.11,South,175,0.0,0.0,97,0.00,,,0.00,Wunderground v.1.15,2013-01-15 02:20:00,
2013-01-14 21:25:00,62.1,61.2,30.11,South,175,0.0,0.0,97,0.00,,,0.00,Wunderground v.1.15,2013-01-15 02:25:00,
2013-01-14 21:35:00,61.9,61.0,30.11,South,175,0.0,0.0,97,0.00,,,0.00,Wunderground v.1.15,2013-01-15 02:35:00,
2013-01-14 21:40:00,61.9,61.0,30.12,South,175,0.0,0.0,97,0.00,,,0.00,Wunderground v.1.15,2013-01-15 02:40:00,
2013-01-14 21:45:00,61.9,61.0,30.12,South,175,0.0,0.0,97,0.00,,,0.00,Wunderground v.1.15,2013-01-15 02:45:00,
2013-01-14 21:50:00,61.8,60.9,30.11,South,175,0.0,0.0,97,0.00,,,0.00,Wunderground v.1.15,2013-01-15 02:50:00,
2013-01-14 21:55:00,61.8,60.9,30.11,South,175,0.0,0.0,97,0.00,,,0.00,Wunderground v.1.15,2013-01-15 02:55:00,
2013-01-14 22:05:00,61.7,60.8,30.12,South,175,0.0,0.0,97,0.00,,,0.00,Wunderground v.1.15,2013-01-15 03:05:00,
2013-01-14 22:15:00,61.7,60.8,30.11,South,175,0.0,0.0,97,0.00,,,0.00,Wunderground v.1.15,2013-01-15 03:15:00,
2013-01-14 22:20:00,61.7,61.1,30.11,South,175,0.0,0.0,98,0.00,,,0.00,Wunderground v.1.15,2013-01-15 03:20:00,
2013-01-14 22:25:00,61.8,61.2,30.11,South,175,0.0,0.0,98,0.00,,,0.00,Wunderground v.1.15,2013-01-15 03:25:00,
2013-01-14 22:30:00,61.7,61.1,30.11,South,175,0.0,0.0,98,0.00,,,0.00,Wunderground v.1.15,2013-01-15 03:30:00,
2013-01-14 22:40:00,61.6,61.0,30.12,South,175,0.0,0.0,98,0.00,,,0.00,Wunderground v.1.15,2013-01-15 03:40:00,
2013-01-14 22:45:00,61.5,60.9,30.12,South,175,0.0,0.0,98,0.00,,,0.00,Wunderground v.1.15,2013-01-15 03:45:00,
2013-01-14 22:50:00,61.4,60.8,30.12,South,175,0.0,0.0,98,0.00,,,0.00,Wunderground v.1.15,2013-01-15 03:50:00,
2013-01-14 22:55:00,61.4,60.8,30.12,South,175,0.0,0.0,98,0.00,,,0.00,Wunderground v.1.15,2013-01-15 03:55:00,
2013-01-14 23:00:00,61.3,60.7,30.12,South,175,0.0,0.0,98,0.00,,,0.00,Wunderground v.1.15,2013-01-15 04:00:00,
2013-01-14 23:05:00,61.3,60.7,30.13,South,175,0.0,0.0,98,0.00,,,0.00,Wunderground v.1.15,2013-01-15 04:05:00,
2013-01-14 23:15:00,61.3,60.7,30.13,South,184,0.0,0.0,98,0.00,,,0.00,Wunderground v.1.15,2013-01-15 04:15:00,
2013-01-14 23:20:00,61.5,60.9,30.13,South,184,0.0,0.0,98,0.00,,,0.00,Wunderground v.1.15,2013-01-15 04:20:00,
2013-01-14 23:25:00,61.6,61.0,30.14,WSW,257,0.0,0.0,98,0.00,,,0.00,Wunderground v.1.15,2013-01-15 04:25:00,
2013-01-14 23:30:00,61.6,61.0,30.14,NNW,345,0.0,0.0,98,0.00,,,0.00,Wunderground v.1.15,2013-01-15 04:30:00,
2013-01-14 23:35:00,61.5,60.9,30.14,SE,124,0.0,0.0,98,0.00,,,0.00,Wunderground v.1.15,2013-01-15 04:35:00,
2013-01-14 23:45:00,59.0,57.6,30.15,ENE,69,2.0,5.0,95,0.00,,,0.00,Wunderground v.1.15,2013-01-15 04:45:00,
2013-01-14 23:50:00,57.5,55.8,30.16,West,279,1.0,1.0,94,0.00,,,0.00,Wunderground v.1.15,2013-01-15 04:50:00,
2013-01-14 23:55:00,56.4,55.0,30.16,NW,305,1.0,1.0,95,0.00,,,0.00,Wunderground v.1.15,2013-01-15 04:55:00,